Location: Dalton
(34.7700°N, 84.9700°W)
Time: 04:57:16
(UTC-05:00)

Vanguard 3 - Visible Passes

Search period start: 15 December 2017 00:00
Search period end: 25 December 2017 00:00
Orbit: 509 x 3263 km, 33.3° (Epoch: 14 December)

Date Brightness Start Highest point End Pass type
(mag) Time Alt. Az. Time Alt. Az. Time Alt. Az.
15 Dec 9.4 17:57:47 10° WSW 18:01:01 20° SSW 18:05:16 10° SSE visible
21 Dec 11.6 06:09:53 10° SSE 06:13:57 12° SSE 06:17:33 10° SE visible
22 Dec 11.0 07:02:44 10° SSW 07:13:15 24° SSE 07:20:32 10° ESE visible
23 Dec 11.4 05:49:27 10° S 05:58:02 17° SSE 06:04:50 10° ESE visible
24 Dec 10.8 06:44:33 10° SSW 06:57:20 30° SSE 07:05:50 10° E visible
